Tracking 20628 objects as of 6-Apr-2020
HD Live streaming from Space Station
objects crossing your sky now

RAAVANA1

Track RAAVANA1 now!
10-day predictions
RAAVANA1 is classified as:


NORAD ID: 44330
Int'l Code: 1998-067QF
Perigee: 400.5 km
Apogee: 409.8 km
Inclination: 51.6 °
Period: 92.5 minutes
Semi major axis: 6776 km
RCS: Unknown
Launch date: November 20, 1998
Source: Democratic Socialist Republic of Sri Lanka (LKA)
Launch site: TYURATAM MISSILE AND SPACE COMPLEX (TTMTR)

Uplink (MHz):
Downlink (MHz): 437.375
Beacon (MHz): 437.375
Mode: 4800bps GMSK CW
Call sign: JG6YLE
Status: Active

aabbcc
Your satellite tracking list
Your tracking list is empty




NASA's NSSDC Master Catalog

Two Line Element Set (TLE):
1 44330U 98067QF  20096.87901905 +.00010341 +00000-0 +15007-3 0  9995
2 44330 051.6403 337.7462 0006879 094.2873 265.8905 15.56435671045670
Source of the keplerian elements: AFSPC